Showing default

SKY MUSTER 2, 41794

Orbit data source: Space-Track

SKY MUSTER 2, 41794 is a payload satellite owned by NBN (AU) in GEO that was launched on Wed, 05 Oct 2016 UTC via an ARIANE 5ECA launch vehicle from the French Guiana (FRGUI). Payload-class satellites include a variety of spacecraft equipped with specific instruments for various scientific and technological missions. These include communications satellites like Starlink; space stations such as the ISS; scientific satellites like the Hubble; Earth observation satellites from companies like Planet Labs, Umbra, and HawkEye 360; GPS; miniature CubeSats for education and research; and military/defense satellites.

Not visible in the next 10 days
Identifier
41794, 2016-060B
Orbit
GEO
Last TLE update
16 hours ago
Origin
Manufacturer
SS/Loral (MDA)
Mission
Operational Commercial Communications
Bus & Motor
SSL-1300, R-4D?
Mass
6,405 kg wet, ~3,500 kg dry
Launch date (UTC)
2016-10-05 (9 years ago)
Launch vehicle
ARIANE 5ECA
Launch site
French Guiana (FRGUI)
Object type
Payload
Rocket body
Debris
Shape & HBR
Box + 2 Pan, 26 m
Radar Cross Section
48.493 m², Large (>1 m²)

Expand to show TLE details & history

TLE from 16 hours ago
0 SKY MUSTER 2
1 41794U 16060B   25181.73170044 -.00000244  00000-0  00000-0 0  9992
2 41794   0.0179 338.9715 0001484 116.5953 231.6727  1.00271283 31991
Epoch: 2025-06-30T17:33Z
TLE epoch observation values (Epoch: 2025-06-30T17:33:38.918Z)
Latitude
-0.01505°
Longitude
144.79097°
Altitude
35,790.127 km
Speed
3.074 km/s
True Right ascension
21h 48m 57s
True Declination
0° 00' 54"
Sunlit
Object was in daylight at epoch
Visualization orbit readout
Latitude
-0.02037°
Longitude
31.28215°
Altitude
35,789.249 km
Speed
3.074 km/s
Apparent Right ascension
13h 50m 57s
Apparent Declination
-5° 17' 41"
Sunlit
Object is in daylight
Visualization observer readout
Local Sidereal Time
21:35:11
Azimuth
283.204° WNW
Elevation
-23.245°
Doppler factor
1
Orbital elements
Apogee altitude
35,794.063 km
Perigee altitude
35,781.549 km
Semi-major axis
42,165.943 km
Eccentricity
0.00015
Inclination
0.0179°
RAAN
338.9715°
Arg. of periapsis
116.5953°
True anomaly
Unknown
Mean anomaly
231.6727°
Eccentric anomaly
Unknown
Mean motion
0.25067 °/min
Orbital period
1,436.16 mins
BSTAR
0
Loading historical data...
41794 neighbors
Loading maneuver chart data...
Loading SW <> Apogee altitude chart data...
Loading historical data...
Loading historical data...
Loading historical data...
Loading historical data...
Loading historical data...
Loading historical data...
Loading historical data...
Other satellites on launch #60 in the year 2016 (2016-10-05 UTC)

SKY MUSTER 2 Visibility

Observer location: undefined°, undefined°

SKY MUSTER 2 is likely not visible in the next few days
Span
Click to sort rows by Start time (UTC) header in descending order
Start Az.
Max El. time (UTC)
Max El. Az.
Max El.
End time (UTC)
End Az.
|